�N����,����,�~����,�C��,���x,�C��,����,���ϕ���,�ő�u�ԕ���,�ő厞����,���˗�,�I�_���x,�n�����x,�ő啗���N��,DTYPE
"18/08/08","00:10",0.0,22.1,85.3,999.8,302.2,0.7,2.1,305.7,0.00,19.6,26.9,"00:00:02",1
"18/08/08","00:20",0.0,22.6,84.4,999.8,302.1,1.5,2.7,321.9,0.00,19.9,26.9,"00:19:12",1
"18/08/08","00:30",0.0,23.0,81.9,999.6,325.3,1.7,2.8,334.5,0.00,19.8,26.8,"00:22:32",1
"18/08/08","00:40",0.0,23.0,81.8,999.8,291.1,1.0,2.1,303.1,0.00,19.8,26.7,"00:31:12",1
"18/08/08","00:50",0.0,22.7,81.7,999.8,294.6,1.0,1.6,327.8,0.00,19.5,26.6,"00:40:16",1
"18/08/08","01:00",0.0,22.4,83.2,999.8,313.1,1.2,1.8,314.7,0.00,19.5,26.4,"00:58:00",1
"18/08/08","01:10",0.0,22.1,85.5,999.6,314.0,0.7,1.2,290.9,0.00,19.6,26.5,"01:02:16",1
"18/08/08","01:20",0.0,21.8,85.9,999.3,294.7,0.8,1.7,329.8,0.00,19.4,26.5,"01:15:36",1
"18/08/08","01:30",0.0,21.7,87.2,999.3,316.2,1.3,2.5,333.1,0.00,19.5,26.2,"01:27:12",1
"18/08/08","01:40",0.0,21.8,87.8,999.3,287.0,1.3,1.8,286.5,0.00,19.7,26.4,"01:35:12",1
"18/08/08","01:50",0.0,21.9,87.4,999.3,283.1,1.1,2.4,317.0,0.00,19.8,26.2,"01:40:02",1
"18/08/08","02:00",0.0,22.3,86.7,999.1,320.9,2.0,3.1,323.4,0.00,20.0,26.1,"01:56:40",1
"18/08/08","02:10",0.0,22.7,85.4,998.9,319.4,1.8,3.7,354.6,0.00,20.2,26.2,"02:08:16",1
"18/08/08","02:20",0.0,22.7,84.3,998.6,331.6,2.1,3.7,349.6,0.00,20.0,26.0,"02:11:44",1
"18/08/08","02:30",0.0,22.6,84.3,998.4,314.7,1.8,4.5,341.5,0.00,19.9,25.9,"02:25:04",1
"18/08/08","02:40",0.0,22.6,84.5,998.6,319.5,1.6,2.8,346.4,0.00,19.9,26.0,"02:34:08",1
"18/08/08","02:50",0.0,22.5,84.9,998.4,302.6,1.5,2.6,341.2,0.00,19.9,26.2,"02:46:16",1
"18/08/08","03:00",0.0,22.6,84.3,998.4,310.5,1.5,2.6,336.6,0.00,19.9,26.0,"02:59:44",1
"18/08/08","03:10",0.0,22.6,84.3,997.9,324.3,1.8,3.1,339.7,0.00,19.9,26.2,"03:01:36",1
"18/08/08","03:20",0.0,22.8,84.0,997.9,321.9,2.0,3.5,329.9,0.00,20.0,25.9,"03:10:40",1
"18/08/08","03:30",0.0,22.7,84.0,998.4,311.6,1.5,2.9,341.9,0.00,19.9,25.8,"03:20:08",1
"18/08/08","03:40",0.0,22.5,84.3,998.2,311.9,1.3,2.7,339.0,0.00,19.8,25.8,"03:34:16",1
"18/08/08","03:50",0.0,22.3,84.8,997.9,282.3,1.1,1.7,311.3,0.00,19.7,25.8,"03:42:00",1
"18/08/08","04:00",0.0,22.3,85.3,997.7,303.8,1.3,2.2,339.4,0.00,19.8,25.5,"03:54:00",1
"18/08/08","04:10",0.0,22.3,85.8,997.9,310.5,1.2,2.1,328.9,0.00,19.8,25.7,"04:01:52",1
"18/08/08","04:20",0.0,22.4,85.6,998.4,314.3,1.6,2.4,306.5,0.00,19.9,25.7,"04:17:28",1
"18/08/08","04:30",0.0,22.3,85.6,998.2,303.8,1.2,2.2,313.6,0.00,19.8,25.7,"04:25:44",1
"18/08/08","04:40",0.0,22.3,85.1,998.4,297.9,1.3,2.8,317.2,0.00,19.7,25.5,"04:32:08",1
"18/08/08","04:50",0.0,22.2,85.1,998.2,320.8,1.3,3.2,333.4,0.00,19.6,25.4,"04:48:00",1
"18/08/08","05:00",0.0,21.9,86.3,998.4,318.6,1.0,2.1,327.2,0.00,19.5,25.5,"04:52:24",1
"18/08/08","05:10",0.0,21.9,86.9,998.2,319.5,1.5,2.2,329.0,0.00,19.7,25.3,"05:08:08",1
"18/08/08","05:20",0.0,21.9,87.1,998.2,327.5,1.1,2.0,329.7,0.00,19.7,25.3,"05:13:52",1
"18/08/08","05:30",0.0,21.8,87.5,998.6,71.5,0.2,0.5,53.0,0.00,19.7,25.3,"05:20:08",1
"18/08/08","05:40",0.0,21.8,88.1,998.6,332.7,1.0,1.9,334.8,0.00,19.8,25.3,"05:36:32",1
"18/08/08","05:50",0.0,21.6,87.8,998.9,341.6,1.6,2.2,338.2,0.00,19.5,25.3,"05:49:28",1
"18/08/08","06:00",0.0,21.5,88.9,998.6,337.0,1.6,2.4,335.0,0.00,19.6,25.2,"05:52:16",1
"18/08/08","06:10",0.0,21.7,89.5,998.6,333.0,1.7,2.6,337.9,0.00,19.9,25.2,"06:02:48",1
"18/08/08","06:20",0.0,22.2,88.7,998.9,328.6,2.0,3.2,327.9,0.00,20.3,25.3,"06:15:52",1
"18/08/08","06:30",0.0,22.9,86.0,998.9,332.9,2.0,3.6,340.8,0.02,20.5,25.4,"06:20:56",1
"18/08/08","06:40",0.0,23.6,83.1,998.9,338.1,2.0,3.2,331.1,0.03,20.6,25.1,"06:34:56",1
"18/08/08","06:50",0.0,24.3,80.1,998.9,336.3,1.7,3.4,343.9,0.04,20.7,25.2,"06:40:48",1
"18/08/08","07:00",0.0,24.6,78.5,999.1,329.7,1.6,4.1,344.0,0.06,20.7,25.4,"06:56:08",1
"18/08/08","07:10",0.0,24.7,77.7,998.6,323.7,1.8,3.6,352.4,0.08,20.6,25.4,"07:00:40",1
"18/08/08","07:20",0.0,25.4,75.9,998.6,306.1,1.0,2.6,343.4,0.10,20.9,25.7,"07:14:48",1
"18/08/08","07:30",0.0,25.8,73.5,998.6,317.5,1.0,2.4,345.0,0.13,20.7,25.8,"07:29:12",1
"18/08/08","07:40",0.0,26.4,72.4,998.6,333.5,1.1,2.5,359.1,0.15,21.1,25.9,"07:36:16",1
"18/08/08","07:50",0.0,26.6,71.7,998.4,320.3,1.5,2.8,327.3,0.17,21.1,25.8,"07:42:16",1
"18/08/08","08:00",0.0,26.4,70.8,998.4,328.9,1.8,4.8,354.1,0.19,20.7,25.8,"07:59:12",1
"18/08/08","08:10",0.0,26.2,72.2,998.4,331.0,2.0,5.4,351.8,0.16,20.8,26.0,"08:02:08",1
"18/08/08","08:20",0.0,26.3,71.5,997.9,336.3,2.1,5.1,345.1,0.16,20.8,26.4,"08:13:20",1
"18/08/08","08:30",0.0,26.4,70.9,997.9,322.5,1.3,4.1,333.5,0.22,20.7,26.6,"08:23:12",1
"18/08/08","08:40",0.0,27.0,69.8,997.7,317.4,1.5,4.8,338.5,0.21,21.1,26.7,"08:37:04",1
"18/08/08","08:50",0.0,27.1,69.0,997.4,312.4,1.3,4.3,351.0,0.28,21.0,27.0,"08:48:16",1
"18/08/08","09:00",0.0,26.9,69.5,997.4,301.2,1.5,3.4,337.4,0.29,20.9,27.0,"08:51:20",1
"18/08/08","09:10",0.0,26.8,69.7,997.2,291.4,1.3,4.4,341.0,0.24,20.8,27.2,"09:07:04",1
"18/08/08","09:20",0.0,26.5,71.0,997.2,310.7,1.7,4.2,294.9,0.19,20.9,27.2,"09:15:44",1
"18/08/08","09:30",0.0,26.8,71.2,996.7,277.6,1.3,3.5,337.6,0.19,21.2,27.5,"09:28:16",1
"18/08/08","09:40",0.0,26.6,71.2,997.0,302.5,1.7,4.1,350.1,0.17,21.0,27.5,"09:30:02",1
"18/08/08","09:50",0.0,26.7,71.4,996.7,321.8,1.8,4.2,324.8,0.14,21.1,27.5,"09:48:48",1
"18/08/08","10:00",0.0,26.7,72.8,996.7,332.3,1.5,3.9,341.3,0.13,21.5,27.5,"09:55:12",1
"18/08/08","10:10",0.0,26.5,72.2,996.7,329.9,1.3,3.2,340.9,0.13,21.1,27.6,"10:01:04",1
"18/08/08","10:20",0.0,27.0,70.7,996.5,338.7,1.3,3.3,349.9,0.16,21.3,27.9,"10:12:48",1
"18/08/08","10:30",0.0,27.3,70.5,996.5,309.5,1.2,3.3,343.4,0.18,21.5,28.0,"10:28:40",1
"18/08/08","10:40",0.0,27.9,69.5,996.7,336.9,1.0,2.6,343.2,0.23,21.8,28.0,"10:39:44",1
"18/08/08","10:50",0.0,27.9,69.0,996.7,294.3,1.1,3.4,340.9,0.24,21.7,28.2,"10:43:28",1
"18/08/08","11:00",0.0,28.1,69.0,996.7,316.8,1.1,4.0,344.5,0.18,21.9,28.4,"10:53:04",1
"18/08/08","11:10",0.0,28.0,69.9,996.7,2.1,2.3,4.3,54.8,0.20,22.0,28.3,"11:03:44",1
"18/08/08","11:20",0.0,28.0,70.4,996.7,351.9,2.6,6.3,348.9,0.22,22.2,28.4,"11:16:56",1
"18/08/08","11:30",0.0,28.2,69.2,996.3,358.0,2.8,6.2,341.7,0.22,22.1,28.4,"11:28:48",1
"18/08/08","11:40",0.0,28.6,67.7,996.0,330.8,2.7,7.3,317.7,0.30,22.1,28.4,"11:37:36",1
"18/08/08","11:50",0.0,28.1,69.1,996.3,326.3,2.5,5.9,343.7,0.24,21.9,28.6,"11:48:16",1
"18/08/08","12:00",0.0,28.1,70.2,996.0,325.3,1.8,5.2,342.3,0.18,22.2,28.7,"11:51:44",1
"18/08/08","12:10",0.0,28.1,70.5,996.3,325.4,1.7,3.7,342.3,0.21,22.3,29.0,"12:05:44",1
"18/08/08","12:20",0.0,28.8,69.1,996.0,304.3,1.3,3.3,338.7,0.32,22.6,29.1,"12:10:16",1
"18/08/08","12:30",0.0,28.4,69.2,996.0,332.9,2.2,5.1,330.7,0.20,22.3,29.0,"12:24:16",1
"18/08/08","12:40",0.0,28.2,70.4,995.8,344.9,2.3,6.0,327.4,0.17,22.3,28.9,"12:35:28",1
"18/08/08","12:50",0.0,28.7,69.1,996.0,337.8,2.2,5.6,329.7,0.27,22.5,29.1,"12:45:52",1
"18/08/08","13:00",0.0,28.0,70.7,996.3,327.6,2.6,6.7,337.6,0.25,22.2,29.2,"12:53:04",1
"18/08/08","13:10",0.0,27.8,72.3,995.8,314.5,2.2,7.2,323.1,0.21,22.4,29.1,"13:02:16",1
"18/08/08","13:20",0.0,29.8,64.2,995.6,281.3,1.8,4.4,223.6,0.47,22.3,29.3,"13:12:40",1
"18/08/08","13:30",0.0,29.6,65.6,995.8,331.6,2.2,4.5,336.2,0.31,22.5,29.5,"13:25:04",1
"18/08/08","13:40",0.0,28.0,70.7,995.6,326.4,2.6,5.9,341.9,0.20,22.2,29.3,"13:34:08",1
"18/08/08","13:50",0.0,28.1,69.0,995.3,336.0,2.8,6.5,348.4,0.12,21.9,29.4,"13:48:24",1
"18/08/08","14:00",0.0,29.3,66.8,995.3,341.4,1.5,4.9,334.4,0.26,22.5,29.7,"13:50:08",1
"18/08/08","14:10",0.0,28.9,63.8,995.6,353.1,2.6,6.7,342.7,0.25,21.4,29.5,"14:06:56",1
"18/08/08","14:20",0.0,28.3,67.1,995.1,336.9,2.7,5.5,335.9,0.12,21.7,29.4,"14:15:20",1
"18/08/08","14:30",0.0,28.2,66.6,995.3,338.2,3.1,7.8,341.7,0.17,21.4,29.5,"14:25:20",1
"18/08/08","14:40",0.0,28.4,66.2,995.1,341.1,2.2,5.5,324.5,0.14,21.5,29.6,"14:35:36",1
"18/08/08","14:50",0.0,29.4,61.6,995.1,343.5,2.2,4.7,310.8,0.33,21.3,29.6,"14:49:12",1
"18/08/08","15:00",0.0,28.4,65.0,994.8,340.8,2.8,7.1,334.5,0.13,21.2,29.7,"14:51:12",1
"18/08/08","15:10",0.0,28.2,64.4,994.6,341.1,3.4,5.8,350.1,0.09,20.9,29.7,"15:00:32",1
"18/08/08","15:20",0.0,27.8,65.5,994.8,345.9,3.5,9.5,320.6,0.06,20.8,29.3,"15:18:12",1
"18/08/08","15:30",0.0,27.9,65.8,994.1,336.0,2.6,6.3,333.7,0.07,21.0,29.3,"15:20:02",1
"18/08/08","15:40",0.0,27.8,66.0,994.8,332.8,2.5,5.0,341.4,0.07,20.9,29.3,"15:30:08",1
"18/08/08","15:50",0.0,27.7,66.8,994.8,336.5,2.0,4.8,5.8,0.05,21.0,29.1,"15:44:32",1
"18/08/08","16:00",0.0,27.5,67.5,994.8,347.7,2.7,5.7,336.2,0.04,21.0,29.2,"15:56:48",1
"18/08/08","16:10",0.0,27.1,68.1,994.8,353.5,2.8,5.4,323.5,0.04,20.7,29.0,"16:06:40",1
"18/08/08","16:20",0.0,26.9,68.8,995.3,341.7,3.2,6.5,347.7,0.04,20.7,28.8,"16:11:04",1
"18/08/08","16:30",0.0,27.0,68.4,995.3,339.6,3.0,5.2,328.9,0.06,20.7,28.9,"16:27:12",1
"18/08/08","16:40",0.0,27.1,68.6,995.3,337.5,3.0,5.5,315.5,0.05,20.9,28.7,"16:36:16",1
"18/08/08","16:50",0.0,27.1,67.8,995.6,335.0,2.3,5.2,338.0,0.05,20.7,28.7,"16:45:28",1
"18/08/08","17:00",0.0,27.1,68.0,995.3,346.1,1.8,5.7,348.7,0.04,20.7,28.6,"16:51:12",1
"18/08/08","17:10",0.0,27.0,68.1,995.3,335.1,3.2,6.5,328.3,0.05,20.7,28.6,"17:05:36",1
"18/08/08","17:20",0.0,27.0,67.7,995.3,350.4,2.6,5.2,11.3,0.05,20.6,28.4,"17:19:36",1
"18/08/08","17:30",0.0,27.0,67.1,995.1,351.8,2.0,3.9,347.3,0.05,20.4,28.4,"17:20:32",1
"18/08/08","17:40",0.0,26.9,66.7,995.3,337.7,2.6,6.7,347.3,0.04,20.2,28.4,"17:31:20",1
"18/08/08","17:50",0.0,26.9,67.1,995.6,345.9,2.1,4.8,333.5,0.04,20.3,28.4,"17:42:32",1
"18/08/08","18:00",0.0,26.8,66.8,995.6,337.0,1.8,3.7,342.8,0.03,20.2,28.5,"17:54:48",1
"18/08/08","18:10",0.0,26.7,67.4,995.3,331.1,1.8,5.1,317.8,0.02,20.2,28.1,"18:00:32",1
"18/08/08","18:20",0.0,26.6,67.8,995.3,343.8,2.0,3.7,333.6,0.00,20.2,28.2,"18:10:48",1
"18/08/08","18:30",0.0,26.4,68.6,995.6,339.7,2.0,3.9,317.8,0.00,20.2,28.0,"18:21:12",1
"18/08/08","18:40",0.0,26.2,68.9,995.3,338.0,2.5,5.0,346.5,0.00,20.1,28.1,"18:36:40",1
"18/08/08","18:50",0.0,26.1,69.2,995.6,349.6,2.0,3.7,324.4,0.00,20.1,27.9,"18:45:44",1
"18/08/08","19:00",0.0,26.0,69.5,995.6,326.7,2.0,4.8,341.5,0.00,20.0,28.1,"18:50:24",1
"18/08/08","19:10",0.0,26.0,69.9,995.8,335.2,1.2,3.3,350.7,0.00,20.1,27.6,"19:01:20",1
"18/08/08","19:20",0.0,25.8,70.4,995.8,318.0,1.0,3.3,342.4,0.00,20.0,27.7,"19:16:32",1
"18/08/08","19:30",0.0,25.8,71.3,995.6,329.6,1.5,2.8,337.8,0.00,20.3,27.5,"19:26:00",1
"18/08/08","19:40",0.0,25.8,71.5,996.0,336.6,2.1,4.4,332.5,0.00,20.3,27.5,"19:33:36",1
"18/08/08","19:50",0.0,25.9,71.6,995.8,333.4,1.5,2.7,328.1,0.00,20.4,27.6,"19:45:28",1
"18/08/08","20:00",0.0,26.0,71.7,995.8,346.5,0.7,2.4,4.7,0.00,20.5,27.5,"19:50:16",1
"18/08/08","20:10",0.0,25.9,72.0,995.6,303.7,1.1,2.5,344.7,0.00,20.5,27.4,"20:02:56",1
"18/08/08","20:20",0.0,26.0,71.9,995.8,334.1,1.7,3.6,351.1,0.00,20.6,27.3,"20:12:24",1
"18/08/08","20:30",0.0,26.0,71.9,996.3,319.9,1.6,3.2,333.0,0.00,20.6,27.3,"20:25:44",1
"18/08/08","20:40",0.0,26.1,71.8,995.8,329.9,1.5,2.8,326.0,0.00,20.7,27.3,"20:31:44",1
"18/08/08","20:50",0.0,25.9,72.8,995.8,316.8,0.8,1.8,342.4,0.00,20.7,27.3,"20:40:08",1
"18/08/08","21:00",0.0,25.9,72.7,995.8,321.2,1.1,3.4,346.8,0.00,20.7,27.2,"20:53:04",1
"18/08/08","21:10",0.0,25.9,72.9,995.6,314.5,1.1,2.1,336.2,0.00,20.7,27.3,"21:03:20",1
"18/08/08","21:20",0.0,25.9,73.2,995.6,326.1,0.7,1.2,336.7,0.00,20.8,27.0,"21:10:16",1
"18/08/08","21:30",0.0,25.9,73.3,995.6,323.0,1.3,2.7,343.7,0.00,20.8,26.9,"21:29:20",1
"18/08/08","21:40",0.0,25.9,73.4,995.3,319.0,1.1,2.4,331.4,0.00,20.8,27.0,"21:30:24",1
"18/08/08","21:50",0.0,26.0,73.6,995.6,319.5,1.1,2.5,336.6,0.00,21.0,27.0,"21:43:36",1
"18/08/08","22:00",0.0,26.0,74.1,995.6,291.2,1.0,1.8,240.4,0.00,21.1,26.8,"21:54:48",1
"18/08/08","22:10",0.0,26.0,74.3,995.6,333.5,1.0,1.8,339.3,0.00,21.1,26.9,"22:08:40",1
"18/08/08","22:20",0.0,26.0,75.0,995.6,329.9,1.5,2.7,338.0,0.00,21.3,26.9,"22:17:20",1
"18/08/08","22:30",0.0,26.0,75.3,995.3,305.4,1.1,2.6,248.2,0.00,21.3,26.9,"22:26:56",1
"18/08/08","22:40",0.0,26.1,75.4,995.1,316.0,1.6,2.8,353.9,0.00,21.4,26.8,"22:36:56",1
"18/08/08","22:50",0.0,26.0,75.8,995.3,323.9,1.5,3.1,350.8,0.00,21.4,26.6,"22:40:48",1
"18/08/08","23:00",0.0,26.0,76.1,995.3,319.4,1.2,2.4,335.4,0.00,21.5,26.7,"22:55:36",1
"18/08/08","23:10",0.0,26.0,76.3,995.3,320.0,1.1,3.4,326.4,0.00,21.5,27.0,"23:01:20",1
"18/08/08","23:20",0.0,26.0,76.3,995.3,309.7,1.2,3.2,341.7,0.00,21.5,26.7,"23:13:20",1
"18/08/08","23:30",0.0,26.1,76.4,995.1,328.6,1.3,2.4,330.1,0.00,21.7,26.6,"23:24:56",1
"18/08/08","23:40",0.0,26.0,76.9,995.3,319.6,1.0,2.0,319.2,0.00,21.7,26.8,"23:30:56",1
"18/08/08","23:50",0.0,26.0,77.1,995.3,326.9,1.1,2.0,341.0,0.00,21.7,26.6,"23:42:40",1
"18/08/08","24:00",0.0,25.9,77.5,995.1,301.9,1.1,1.9,341.8,0.00,21.7,26.8,"23:55:12",1
